• In Uzbekistan
  • List of Countries
  • For 7 days
  • Water Temperature
  • Satellite Maps
  • Weather Map
  • Weather Widgets
  • user-avatar
    Login

    Hourly Weather Dashhovuz

    Today, 21 October, Sunday

    Time Temperature Precipitation Wind Pressure Humidity
    00:00 +13°C° 0 mm 3 mps 758 mmHg 31%
    01:00 +12°C° 0 mm 3 mps 757 mmHg 33%
    02:00 +12°C° 0 mm 3 mps 757 mmHg 35%
    03:00 +12°C° 0 mm 3 mps 757 mmHg 38%
    04:00 +11°C° 0 mm 3 mps 757 mmHg 40%
    05:00 +11°C° 0 mm 3 mps 757 mmHg 40%
    06:00 +11°C° 0 mm 4 mps 757 mmHg 41%
    07:00 +11°C° 0 mm 4 mps 757 mmHg 41%
    08:00 +13°C° 0 mm 4 mps 757 mmHg 35%
    09:00 +15°C° 0 mm 4 mps 757 mmHg 29%
    10:00 +18°C° 0 mm 4 mps 757 mmHg 23%
    11:00 +19°C° 0 mm 4 mps 757 mmHg 20%
    12:00 +21°C° 0 mm 4 mps 756 mmHg 18%
    13:00 +22°C° 0 mm 4 mps 756 mmHg 16%
    14:00 +22°C° 0 mm 3 mps 756 mmHg 15%
    15:00 +22°C° 0 mm 3 mps 756 mmHg 15%
    16:00 +23°C° 0 mm 2 mps 756 mmHg 15%
    17:00 +21°C° 0 mm 2 mps 756 mmHg 16%
    18:00 +19°C° 0 mm 3 mps 756 mmHg 18%
    19:00 +18°C° 0 mm 3 mps 756 mmHg 20%
    20:00 +18°C° 0 mm 3 mps 756 mmHg 21%
    21:00 +17°C° 0 mm 3 mps 756 mmHg 22%
    22:00 +16°C° 0 mm 3 mps 756 mmHg 23%
    23:00 +16°C° 0 mm 3 mps 756 mmHg 24%

    Tomorrow, 22 October, Monday

    Time Temperature Precipitation Wind Pressure Humidity
    00:00 +14°C° 0 mm 3 mps 756 mmHg 25%
    01:00 +14°C° 0 mm 3 mps 756 mmHg 26%
    02:00 +14°C° 0 mm 3 mps 756 mmHg 27%
    03:00 +13°C° 0 mm 3 mps 756 mmHg 28%
    04:00 +13°C° 0 mm 3 mps 755 mmHg 29%
    05:00 +13°C° 0 mm 3 mps 756 mmHg 30%
    06:00 +13°C° 0 mm 3 mps 756 mmHg 30%
    07:00 +13°C° 0 mm 3 mps 756 mmHg 31%
    08:00 +16°C° 0 mm 3 mps 756 mmHg 28%
    09:00 +17°C° 0 mm 3 mps 756 mmHg 25%
    10:00 +19°C° 0 mm 3 mps 757 mmHg 22%
    11:00 +20°C° 0 mm 3 mps 756 mmHg 20%
    12:00 +21°C° 0 mm 3 mps 756 mmHg 19%
    13:00 +22°C° 0 mm 3 mps 756 mmHg 17%
    14:00 +22°C° 0 mm 3 mps 756 mmHg 17%
    15:00 +22°C° 0 mm 3 mps 755 mmHg 17%
    16:00 +22°C° 0 mm 3 mps 755 mmHg 17%
    17:00 +21°C° 0 mm 4 mps 755 mmHg 20%
    18:00 +20°C° 0 mm 4 mps 755 mmHg 23%
    19:00 +18°C° 0 mm 4 mps 756 mmHg 25%
    20:00 +17°C° 0 mm 4 mps 756 mmHg 27%
    21:00 +17°C° 0 mm 4 mps 756 mmHg 29%
    22:00 +15°C° 0 mm 4 mps 757 mmHg 31%
    23:00 +14°C° 0 mm 4 mps 756 mmHg 32%

    Day after tomorrow, 23 October, Tuesday

    Time Temperature Precipitation Wind Pressure Humidity
    00:00 +14°C° 0 mm 4 mps 756 mmHg 33%
    01:00 +13°C° 0 mm 4 mps 756 mmHg 35%
    02:00 +13°C° 0 mm 4 mps 756 mmHg 36%
    03:00 +13°C° 0 mm 4 mps 756 mmHg 37%
    04:00 +12°C° 0 mm 4 mps 756 mmHg 37%
    05:00 +12°C° 0 mm 4 mps 757 mmHg 37%
    06:00 +12°C° 0 mm 4 mps 757 mmHg 37%
    07:00 +12°C° 0 mm 4 mps 757 mmHg 37%
    08:00 +14°C° 0 mm 4 mps 757 mmHg 34%
    09:00 +15°C° 0 mm 4 mps 757 mmHg 31%
    10:00 +17°C° 0 mm 5 mps 757 mmHg 27%
    11:00 +19°C° 0 mm 4 mps 757 mmHg 25%
    12:00 +20°C° 0 mm 4 mps 757 mmHg 23%
    13:00 +21°C° 0 mm 4 mps 757 mmHg 21%
    14:00 +21°C° 0 mm 4 mps 756 mmHg 20%
    15:00 +21°C° 0 mm 4 mps 756 mmHg 20%
    16:00 +21°C° 0 mm 5 mps 756 mmHg 20%
    17:00 +20°C° 0 mm 4 mps 756 mmHg 22%
    18:00 +19°C° 0 mm 4 mps 756 mmHg 23%
    19:00 +18°C° 0 mm 4 mps 756 mmHg 25%
    20:00 +17°C° 0 mm 4 mps 756 mmHg 27%
    21:00 +17°C° 0 mm 4 mps 756 mmHg 28%
    22:00 +15°C° 0 mm 4 mps 755 mmHg 29%
    23:00 +15°C° 0 mm 4 mps 755 mmHg 30%

    24 October, Wednesday

    Time Temperature Precipitation Wind Pressure Humidity
    00:00 +14°C° 0 mm 4 mps 755 mmHg 32%
    01:00 +14°C° 0 mm 4 mps 755 mmHg 33%
    02:00 +13°C° 0 mm 4 mps 754 mmHg 35%
    03:00 +13°C° 0 mm 4 mps 754 mmHg 36%
    04:00 +13°C° 0 mm 4 mps 754 mmHg 38%
    05:00 +13°C° 0 mm 4 mps 754 mmHg 39%
    06:00 +12°C° 0 mm 4 mps 754 mmHg 39%
    07:00 +12°C° 0 mm 4 mps 754 mmHg 40%
    08:00 +14°C° 0 mm 4 mps 754 mmHg 36%
    09:00 +17°C° 0 mm 4 mps 754 mmHg 32%
    10:00 +19°C° 0 mm 5 mps 754 mmHg 28%
    11:00 +20°C° 0 mm 4 mps 753 mmHg 25%
    12:00 +21°C° 0 mm 4 mps 753 mmHg 22%
    13:00 +22°C° 0 mm 4 mps 753 mmHg 19%
    14:00 +23°C° 0 mm 4 mps 752 mmHg 19%
    15:00 +23°C° 0 mm 4 mps 752 mmHg 18%
    16:00 +23°C° 0 mm 4 mps 752 mmHg 18%
    17:00 +21°C° 0 mm 4 mps 752 mmHg 20%
    18:00 +20°C° 0 mm 4 mps 752 mmHg 21%
    19:00 +19°C° 0 mm 4 mps 752 mmHg 23%
    20:00 +18°C° 0 mm 4 mps 752 mmHg 24%
    21:00 +18°C° 0 mm 4 mps 752 mmHg 26%
    22:00 +17°C° 0 mm 4 mps 752 mmHg 27%
    23:00 +17°C° 0 mm 4 mps 751 mmHg 27%

    25 October, Thursday

    Time Temperature Precipitation Wind Pressure Humidity
    00:00 +17°C° 0 mm 4 mps 751 mmHg 28%
    01:00 +17°C° 0 mm 4 mps 751 mmHg 28%
    02:00 +15°C° 0 mm 4 mps 750 mmHg 28%
    03:00 +15°C° 0 mm 4 mps 750 mmHg 28%
    04:00 +15°C° 0 mm 4 mps 750 mmHg 28%
    05:00 +15°C° 0 mm 4 mps 750 mmHg 28%
    06:00 +15°C° 0 mm 4 mps 750 mmHg 28%
    07:00 +15°C° 0 mm 4 mps 750 mmHg 28%
    08:00 +17°C° 0 mm 5 mps 750 mmHg 24%
    09:00 +20°C° 0 mm 6 mps 750 mmHg 21%
    10:00 +23°C° 0 mm 6 mps 750 mmHg 17%
    11:00 +24°C° 0 mm 6 mps 749 mmHg 16%
    12:00 +27°C° 0 mm 6 mps 749 mmHg 14%
    13:00 +29°C° 0 mm 7 mps 748 mmHg 13%
    14:00 +29°C° 0 mm 6 mps 748 mmHg 13%
    15:00 +29°C° 0 mm 6 mps 748 mmHg 13%
    16:00 +29°C° 0 mm 5 mps 748 mmHg 13%
    17:00 +28°C° 0 mm 5 mps 748 mmHg 14%
    18:00 +26°C° 0 mm 6 mps 748 mmHg 15%
    19:00 +24°C° 0 mm 6 mps 748 mmHg 16%
    20:00 +24°C° 0 mm 6 mps 747 mmHg 16%
    21:00 +24°C° 0 mm 6 mps 747 mmHg 16%
    22:00 +23°C° 0 mm 6 mps 747 mmHg 16%
    23:00 +23°C° 0 mm 5 mps 747 mmHg 16%

    26 October, Friday

    Time Temperature Precipitation Wind Pressure Humidity
    00:00 +22°C° 0 mm 5 mps 747 mmHg 16%
    01:00 +21°C° 0 mm 5 mps 747 mmHg 16%
    02:00 +21°C° 0 mm 5 mps 746 mmHg 17%
    03:00 +21°C° 0 mm 5 mps 746 mmHg 17%
    04:00 +20°C° 0 mm 5 mps 746 mmHg 17%
    05:00 +20°C° 0 mm 5 mps 746 mmHg 18%
    06:00 +20°C° 0 mm 5 mps 746 mmHg 19%
    07:00 +20°C° 0 mm 5 mps 746 mmHg 19%
    08:00 +22°C° 0 mm 5 mps 746 mmHg 18%
    09:00 +25°C° 0 mm 5 mps 747 mmHg 16%
    10:00 +27°C° 0 mm 5 mps 747 mmHg 14%
    11:00 +29°C° 0 mm 5 mps 746 mmHg 14%
    12:00 +32°C° 0 mm 5 mps 746 mmHg 13%
    13:00 +34°C° 0 mm 5 mps 746 mmHg 12%
    14:00 +33°C° 0 mm 4 mps 746 mmHg 13%
    15:00 +33°C° 0 mm 3 mps 746 mmHg 14%
    16:00 +32°C° 0 mm 2 mps 746 mmHg 15%
    17:00 +31°C° 0 mm 2 mps 746 mmHg 16%
    18:00 +29°C° 0 mm 2 mps 746 mmHg 18%
    19:00 +28°C° 0 mm 1 mps 746 mmHg 20%
    20:00 +28°C° 0 mm 1 mps 746 mmHg 20%
    21:00 +28°C° 0 mm 2 mps 747 mmHg 20%
    22:00 +28°C° 0 mm 2 mps 747 mmHg 20%
    23:00 +27°C° 0 mm 2 mps 747 mmHg 22%
    Show more